Time,TemperatureF,DewpointF,PressureIn,WindDirection,WindDirectionDegrees,WindSpeedMPH,WindSpeedGustMPH,Humidity,HourlyPrecipIn,Conditions,Clouds,dailyrainin,SoftwareType,DateUTC
2013-11-29 00:01:00,27.5,16.2,18.58,SW,227,0.0,0.0,62,0.00,,,0.00,VWS V14.01,2013-11-29 05:01:00,
2013-11-29 00:02:00,27.5,16.2,18.58,SW,227,0.0,0.0,62,0.00,,,0.00,VWS V14.01,2013-11-29 05:02:00,
2013-11-29 00:03:00,27.5,16.2,18.58,SW,227,0.0,0.0,62,0.00,,,0.00,VWS V14.01,2013-11-29 05:03:00,
2013-11-29 00:07:00,27.5,16.2,18.58,SW,227,0.0,0.0,62,0.00,,,0.00,VWS V14.01,2013-11-29 05:07:00,
2013-11-29 00:11:00,27.5,16.2,18.58,SW,227,0.0,0.0,62,0.00,,,0.00,VWS V14.01,2013-11-29 05:11:00,
2013-11-29 00:12:00,27.5,16.2,18.58,SW,227,0.0,0.0,62,0.00,,,0.00,VWS V14.01,2013-11-29 05:12:00,
2013-11-29 00:18:00,27.5,16.2,18.58,SW,227,0.0,0.0,62,0.00,,,0.00,VWS V14.01,2013-11-29 05:18:00,
2013-11-29 00:24:00,27.5,16.6,18.58,SW,227,0.0,0.0,63,0.00,,,0.00,VWS V14.01,2013-11-29 05:24:00,
2013-11-29 00:29:00,27.7,16.7,18.58,SW,227,0.0,0.0,63,0.00,,,0.00,VWS V14.01,2013-11-29 05:29:00,
2013-11-29 00:35:00,27.7,16.7,18.58,WNW,301,0.0,0.0,63,0.00,,,0.00,VWS V14.01,2013-11-29 05:35:00,
2013-11-29 00:41:00,27.7,16.7,18.58,WNW,301,0.0,0.0,63,0.00,,,0.00,VWS V14.01,2013-11-29 05:41:00,
2013-11-29 00:46:00,27.7,16.7,18.58,WNW,301,0.0,0.0,63,0.00,,,0.00,VWS V14.01,2013-11-29 05:46:00,
2013-11-29 00:51:00,27.9,16.9,18.58,WNW,301,0.0,0.0,63,0.00,,,0.00,VWS V14.01,2013-11-29 05:51:00,
2013-11-29 00:56:00,27.9,16.9,18.58,WNW,301,0.0,0.0,63,0.00,,,0.00,VWS V14.01,2013-11-29 05:56:00,
2013-11-29 01:01:00,27.7,16.7,18.58,WNW,301,0.0,0.0,63,0.00,,,0.00,VWS V14.01,2013-11-29 06:01:00,
2013-11-29 01:07:00,27.7,16.7,18.58,WNW,301,4.0,6.7,63,0.00,,,0.00,VWS V14.01,2013-11-29 06:07:00,
2013-11-29 01:12:00,27.7,16.7,18.58,WNW,301,0.0,5.6,63,0.00,,,0.00,VWS V14.01,2013-11-29 06:12:00,
2013-11-29 01:17:00,27.7,16.7,18.58,WNW,301,0.0,0.0,63,0.00,,,0.00,VWS V14.01,2013-11-29 06:17:00,
2013-11-29 01:22:00,27.7,16.7,18.58,WNW,301,0.0,0.0,63,0.00,,,0.00,VWS V14.01,2013-11-29 06:22:00,
2013-11-29 01:28:00,27.7,16.7,18.58,WNW,301,0.0,0.0,63,0.00,,,0.00,VWS V14.01,2013-11-29 06:28:00,
2013-11-29 01:34:00,27.5,16.6,18.58,WNW,301,0.0,0.0,63,0.00,,,0.00,VWS V14.01,2013-11-29 06:34:00,
2013-11-29 01:41:00,27.5,16.6,18.58,WNW,301,0.0,0.0,63,0.00,,,0.00,VWS V14.01,2013-11-29 06:41:00,
2013-11-29 01:46:00,27.5,16.6,18.58,WNW,301,0.0,0.0,63,0.00,,,0.00,VWS V14.01,2013-11-29 06:46:00,
2013-11-29 01:52:00,27.7,17.1,18.58,WNW,301,0.0,0.0,64,0.00,,,0.00,VWS V14.01,2013-11-29 06:52:00,
2013-11-29 01:57:00,27.7,17.1,18.58,WNW,301,4.0,6.7,64,0.00,,,0.00,VWS V14.01,2013-11-29 06:57:00,
2013-11-29 02:03:00,27.5,16.6,18.58,WNW,301,0.0,0.0,63,0.00,,,0.00,VWS V14.01,2013-11-29 07:03:00,
2013-11-29 02:09:00,27.5,16.6,18.58,WNW,301,0.0,0.0,63,0.00,,,0.00,VWS V14.01,2013-11-29 07:09:00,
2013-11-29 02:14:00,27.5,16.6,18.58,WNW,301,0.0,0.0,63,0.00,,,0.00,VWS V14.01,2013-11-29 07:14:00,
2013-11-29 02:19:00,27.5,16.6,18.58,WNW,301,0.0,0.0,63,0.00,,,0.00,VWS V14.01,2013-11-29 07:19:00,
2013-11-29 02:24:00,27.5,16.6,18.58,NW,316,0.0,0.0,63,0.00,,,0.00,VWS V14.01,2013-11-29 07:24:00,
2013-11-29 02:29:00,27.3,16.4,18.58,NW,316,0.0,0.0,63,0.00,,,0.00,VWS V14.01,2013-11-29 07:29:00,
2013-11-29 02:36:00,27.3,16.4,18.58,NW,316,0.0,0.0,63,0.00,,,0.00,VWS V14.01,2013-11-29 07:36:00,
2013-11-29 02:42:00,27.3,16.8,18.58,NW,316,0.0,0.0,64,0.00,,,0.00,VWS V14.01,2013-11-29 07:42:00,
2013-11-29 02:48:00,27.3,16.8,18.58,NW,316,0.0,0.0,64,0.00,,,0.00,VWS V14.01,2013-11-29 07:48:00,
2013-11-29 02:54:00,27.3,16.8,18.58,NW,316,0.0,0.0,64,0.00,,,0.00,VWS V14.01,2013-11-29 07:54:00,
2013-11-29 03:00:00,27.1,16.6,18.58,NW,316,0.0,0.0,64,0.00,,,0.00,VWS V14.01,2013-11-29 08:00:00,
2013-11-29 03:06:00,27.1,16.6,18.58,NW,316,0.0,0.0,64,0.00,,,0.00,VWS V14.01,2013-11-29 08:06:00,
2013-11-29 03:11:00,27.1,16.6,18.58,NW,316,0.0,0.0,64,0.00,,,0.00,VWS V14.01,2013-11-29 08:11:00,
2013-11-29 03:17:00,27.1,16.6,18.58,NW,316,0.0,0.0,64,0.00,,,0.00,VWS V14.01,2013-11-29 08:17:00,
2013-11-29 03:22:00,27.1,16.6,18.58,NW,316,0.0,0.0,64,0.00,,,0.00,VWS V14.01,2013-11-29 08:22:00,
2013-11-29 03:27:00,27.1,16.6,18.58,NW,316,0.0,0.0,64,0.00,,,0.00,VWS V14.01,2013-11-29 08:27:00,
2013-11-29 03:33:00,27.1,16.6,18.58,NW,316,0.0,0.0,64,0.00,,,0.00,VWS V14.01,2013-11-29 08:33:00,
2013-11-29 03:38:00,27.1,17.0,18.58,NW,316,0.0,0.0,65,0.00,,,0.00,VWS V14.01,2013-11-29 08:38:00,
2013-11-29 03:44:00,27.0,16.8,18.58,NW,316,0.0,0.0,65,0.00,,,0.00,VWS V14.01,2013-11-29 08:44:00,
2013-11-29 03:49:00,27.0,16.8,18.58,NW,316,0.0,0.0,65,0.00,,,0.00,VWS V14.01,2013-11-29 08:49:00,
2013-11-29 03:54:00,27.0,16.8,18.58,NW,316,0.0,0.0,65,0.00,,,0.00,VWS V14.01,2013-11-29 08:54:00,
2013-11-29 03:59:00,27.0,16.8,18.58,NW,316,0.0,0.0,65,0.00,,,0.00,VWS V14.01,2013-11-29 08:59:00,
2013-11-29 04:04:00,27.0,17.1,18.58,NW,316,0.0,0.0,66,0.00,,,0.00,VWS V14.01,2013-11-29 09:04:00,
2013-11-29 04:10:00,27.0,17.1,18.58,NW,316,0.0,0.0,66,0.00,,,0.00,VWS V14.01,2013-11-29 09:10:00,
2013-11-29 04:16:00,27.0,17.1,18.58,NW,316,0.0,0.0,66,0.00,,,0.00,VWS V14.01,2013-11-29 09:16:00,
2013-11-29 04:21:00,27.0,17.1,18.58,NW,316,0.0,0.0,66,0.00,,,0.00,VWS V14.01,2013-11-29 09:21:00,
2013-11-29 04:27:00,27.0,17.1,18.58,NW,316,0.0,0.0,66,0.00,,,0.00,VWS V14.01,2013-11-29 09:27:00,
2013-11-29 04:32:00,27.0,17.1,18.58,NW,316,0.0,0.0,66,0.00,,,0.00,VWS V14.01,2013-11-29 09:32:00,
2013-11-29 04:37:00,27.0,17.1,18.58,NW,316,0.0,0.0,66,0.00,,,0.00,VWS V14.01,2013-11-29 09:37:00,
2013-11-29 04:43:00,27.0,17.1,18.58,NW,316,0.0,0.0,66,0.00,,,0.00,VWS V14.01,2013-11-29 09:43:00,
2013-11-29 04:49:00,27.0,17.1,18.58,NW,316,0.0,0.0,66,0.00,,,0.00,VWS V14.01,2013-11-29 09:49:00,
2013-11-29 04:56:00,27.0,17.1,18.58,NW,316,0.0,0.0,66,0.00,,,0.00,VWS V14.01,2013-11-29 09:56:00,
2013-11-29 05:01:00,26.8,17.0,18.58,NW,316,0.0,0.0,66,0.00,,,0.00,VWS V14.01,2013-11-29 10:01:00,
2013-11-29 05:06:00,26.8,17.0,18.58,NW,316,0.0,0.0,66,0.00,,,0.00,VWS V14.01,2013-11-29 10:06:00,
2013-11-29 05:12:00,26.8,17.3,18.58,NW,316,0.0,0.0,67,0.00,,,0.00,VWS V14.01,2013-11-29 10:12:00,
2013-11-29 05:17:00,26.6,17.1,18.58,NW,316,0.0,0.0,67,0.00,,,0.00,VWS V14.01,2013-11-29 10:17:00,
2013-11-29 05:23:00,26.8,17.3,18.58,NW,316,0.0,0.0,67,0.00,,,0.00,VWS V14.01,2013-11-29 10:23:00,
2013-11-29 05:28:00,26.8,17.3,18.58,NW,316,0.0,0.0,67,0.00,,,0.00,VWS V14.01,2013-11-29 10:28:00,
2013-11-29 05:33:00,26.8,17.3,18.58,NW,316,0.0,0.0,67,0.00,,,0.00,VWS V14.01,2013-11-29 10:33:00,
2013-11-29 05:39:00,26.6,17.1,18.58,NW,316,0.0,0.0,67,0.00,,,0.00,VWS V14.01,2013-11-29 10:39:00,
2013-11-29 05:45:00,26.4,17.0,18.58,NW,316,0.0,0.0,67,0.00,,,0.00,VWS V14.01,2013-11-29 10:45:00,
2013-11-29 05:50:00,26.4,17.0,18.58,NW,316,0.0,0.0,67,0.00,,,0.00,VWS V14.01,2013-11-29 10:50:00,
2013-11-29 05:56:00,26.6,17.5,18.58,NW,316,0.0,0.0,68,0.00,,,0.00,VWS V14.01,2013-11-29 10:56:00,
2013-11-29 06:01:00,26.6,17.5,18.58,NW,316,0.0,0.0,68,0.00,,,0.00,VWS V14.01,2013-11-29 11:01:00,
2013-11-29 06:07:00,26.4,17.3,18.58,NW,316,0.0,0.0,68,0.00,,,0.00,VWS V14.01,2013-11-29 11:07:00,
2013-11-29 06:12:00,26.4,17.3,18.58,NW,316,0.0,0.0,68,0.00,,,0.00,VWS V14.01,2013-11-29 11:12:00,
2013-11-29 06:18:00,26.2,17.1,18.58,NW,316,0.0,0.0,68,0.00,,,0.00,VWS V14.01,2013-11-29 11:18:00,
2013-11-29 06:23:00,26.2,17.1,18.58,NW,316,0.0,0.0,68,0.00,,,0.00,VWS V14.01,2013-11-29 11:23:00,
2013-11-29 06:29:00,26.2,17.1,18.58,NW,316,0.0,0.0,68,0.00,,,0.00,VWS V14.01,2013-11-29 11:29:00,
2013-11-29 06:34:00,26.2,17.5,18.58,NW,316,0.0,0.0,69,0.00,,,0.00,VWS V14.01,2013-11-29 11:34:00,
2013-11-29 06:40:00,26.2,17.5,18.58,NW,316,0.0,0.0,69,0.00,,,0.00,VWS V14.01,2013-11-29 11:40:00,
2013-11-29 06:46:00,26.1,17.3,18.58,NW,316,0.0,0.0,69,0.00,,,0.00,VWS V14.01,2013-11-29 11:46:00,
2013-11-29 06:51:00,26.1,17.3,18.58,NW,316,0.0,0.0,69,0.00,,,0.00,VWS V14.01,2013-11-29 11:51:00,
2013-11-29 06:57:00,26.1,17.3,18.58,NW,316,0.0,0.0,69,0.00,,,0.00,VWS V14.01,2013-11-29 11:57:00,
2013-11-29 07:03:00,26.1,17.3,18.58,NW,316,0.0,0.0,69,0.00,,,0.00,VWS V14.01,2013-11-29 12:03:00,
2013-11-29 07:08:00,26.1,17.3,18.58,NW,316,0.0,0.0,69,0.00,,,0.00,VWS V14.01,2013-11-29 12:08:00,
2013-11-29 07:14:00,26.2,17.5,18.58,NW,316,0.0,0.0,69,0.00,,,0.00,VWS V14.01,2013-11-29 12:14:00,
2013-11-29 07:19:00,26.1,17.6,18.58,NW,316,0.0,0.0,70,0.00,,,0.00,VWS V14.01,2013-11-29 12:19:00,
2013-11-29 07:25:00,26.1,17.6,18.58,NW,316,0.0,0.0,70,0.00,,,0.00,VWS V14.01,2013-11-29 12:25:00,
2013-11-29 07:31:00,26.1,17.6,18.58,NW,316,0.0,0.0,70,0.00,,,0.00,VWS V14.01,2013-11-29 12:31:00,
2013-11-29 07:37:00,26.1,17.6,18.58,NW,316,0.0,0.0,70,0.00,,,0.00,VWS V14.01,2013-11-29 12:37:00,
2013-11-29 07:42:00,26.1,17.6,18.58,NW,316,0.0,0.0,70,0.00,,,0.00,VWS V14.01,2013-11-29 12:42:00,
2013-11-29 07:47:00,26.1,17.6,18.58,NW,316,0.0,0.0,70,0.00,,,0.00,VWS V14.01,2013-11-29 12:47:00,
2013-11-29 07:53:00,26.1,17.6,18.58,NW,316,0.0,0.0,70,0.00,,,0.00,VWS V14.01,2013-11-29 12:53:00,
2013-11-29 07:59:00,26.1,18.0,18.58,NW,316,0.0,0.0,71,0.00,,,0.00,VWS V14.01,2013-11-29 12:59:00,
2013-11-29 08:04:00,26.2,18.1,18.58,NW,316,0.0,0.0,71,0.00,,,0.00,VWS V14.01,2013-11-29 13:04:00,
2013-11-29 08:09:00,26.2,18.1,18.58,NW,316,0.0,0.0,71,0.00,,,0.00,VWS V14.01,2013-11-29 13:09:00,
2013-11-29 08:14:00,26.2,18.1,18.58,NW,316,0.0,0.0,71,0.00,,,0.00,VWS V14.01,2013-11-29 13:14:00,
2013-11-29 08:19:00,26.4,18.3,18.58,NW,316,0.0,0.0,71,0.00,,,0.00,VWS V14.01,2013-11-29 13:19:00,
2013-11-29 08:26:00,26.6,18.5,18.58,NW,316,0.0,0.0,71,0.00,,,0.00,VWS V14.01,2013-11-29 13:26:00,
2013-11-29 08:31:00,26.6,18.5,18.58,NW,316,0.0,0.0,71,0.00,,,0.00,VWS V14.01,2013-11-29 13:31:00,
2013-11-29 08:36:00,26.8,18.6,18.58,NW,316,0.0,0.0,71,0.00,,,0.00,VWS V14.01,2013-11-29 13:36:00,
2013-11-29 08:41:00,27.0,18.8,18.58,NW,316,0.0,0.0,71,0.00,,,0.00,VWS V14.01,2013-11-29 13:41:00,
2013-11-29 08:46:00,27.1,19.0,18.58,NW,316,0.0,0.0,71,0.00,,,0.00,VWS V14.01,2013-11-29 13:46:00,
2013-11-29 08:52:00,27.5,19.7,18.58,SSW,207,0.0,0.0,72,0.00,,,0.00,VWS V14.01,2013-11-29 13:52:00,
2013-11-29 08:57:00,27.9,20.0,18.58,SSW,207,0.0,0.0,72,0.00,,,0.00,VWS V14.01,2013-11-29 13:57:00,
2013-11-29 09:02:00,28.2,20.4,18.58,SSW,207,0.0,0.0,72,0.00,,,0.00,VWS V14.01,2013-11-29 14:02:00,
2013-11-29 09:08:00,28.6,20.4,18.58,SSW,207,0.0,0.0,71,0.00,,,0.00,VWS V14.01,2013-11-29 14:08:00,
2013-11-29 09:13:00,28.8,20.6,18.58,SSW,207,0.0,0.0,71,0.00,,,0.00,VWS V14.01,2013-11-29 14:13:00,
2013-11-29 09:19:00,29.1,20.6,18.58,SSW,207,0.0,0.0,70,0.00,,,0.00,VWS V14.01,2013-11-29 14:19:00,
2013-11-29 09:24:00,29.7,21.1,18.58,SSW,207,0.0,0.0,70,0.00,,,0.00,VWS V14.01,2013-11-29 14:24:00,
2013-11-29 09:29:00,30.2,21.6,18.58,SSW,207,0.0,0.0,70,0.00,,,0.00,VWS V14.01,2013-11-29 14:29:00,
2013-11-29 09:35:00,29.7,20.8,18.58,SSW,207,0.0,0.0,69,0.00,,,0.00,VWS V14.01,2013-11-29 14:35:00,
2013-11-29 09:41:00,30.0,21.1,18.58,SSW,207,0.0,0.0,69,0.00,,,0.00,VWS V14.01,2013-11-29 14:41:00,
2013-11-29 09:46:00,30.2,20.9,18.58,SSW,207,0.0,0.0,68,0.00,,,0.00,VWS V14.01,2013-11-29 14:46:00,
2013-11-29 09:51:00,30.4,20.8,18.58,ESE,120,4.0,6.7,67,0.00,,,0.00,VWS V14.01,2013-11-29 14:51:00,
2013-11-29 09:56:00,30.9,21.3,18.58,SE,127,4.0,7.8,67,0.00,,,0.00,VWS V14.01,2013-11-29 14:56:00,
2013-11-29 10:01:00,31.5,21.4,18.58,SSE,153,4.0,7.8,66,0.00,,,0.00,VWS V14.01,2013-11-29 15:01:00,
2013-11-29 10:07:00,31.6,20.9,18.58,ESE,106,3.4,8.9,64,0.00,,,0.00,VWS V14.01,2013-11-29 15:07:00,
2013-11-29 10:13:00,32.2,21.4,18.58,SE,137,4.0,7.8,64,0.00,,,0.00,VWS V14.01,2013-11-29 15:13:00,
2013-11-29 10:18:00,32.2,21.0,18.58,SE,141,4.0,8.9,63,0.00,,,0.00,VWS V14.01,2013-11-29 15:18:00,
2013-11-29 10:23:00,32.0,20.5,18.58,SSE,150,0.0,0.0,62,0.00,,,0.00,VWS V14.01,2013-11-29 15:23:00,
2013-11-29 10:28:00,32.4,20.4,18.58,SE,133,4.0,7.8,61,0.00,,,0.00,VWS V14.01,2013-11-29 15:28:00,
2013-11-29 10:34:00,33.1,21.1,18.58,SE,127,6.0,10.1,61,0.00,,,0.00,VWS V14.01,2013-11-29 15:34:00,
2013-11-29 10:41:00,33.1,20.3,18.58,ESE,115,4.0,7.8,59,0.00,,,0.00,VWS V14.01,2013-11-29 15:41:00,
2013-11-29 10:47:00,33.6,20.8,18.58,SE,137,3.4,8.9,59,0.00,,,0.00,VWS V14.01,2013-11-29 15:47:00,
2013-11-29 10:53:00,33.8,20.2,18.58,ESE,112,4.0,7.8,57,0.00,,,0.00,VWS V14.01,2013-11-29 15:53:00,
2013-11-29 10:58:00,34.3,20.7,18.58,SE,137,0.0,0.0,57,0.00,,,0.00,VWS V14.01,2013-11-29 15:58:00,
2013-11-29 11:04:00,35.4,21.3,18.58,SE,145,3.4,5.6,56,0.00,,,0.00,VWS V14.01,2013-11-29 16:04:00,
2013-11-29 11:10:00,35.1,20.1,18.58,ESE,117,4.0,7.8,54,0.00,,,0.00,VWS V14.01,2013-11-29 16:10:00,
2013-11-29 11:16:00,36.0,20.5,18.58,SE,135,0.0,7.8,53,0.00,,,0.00,VWS V14.01,2013-11-29 16:16:00,
2013-11-29 11:22:00,37.2,21.7,18.58,SSE,158,0.0,0.0,53,0.00,,,0.00,VWS V14.01,2013-11-29 16:22:00,
2013-11-29 11:27:00,37.4,20.5,18.58,NE,52,0.0,0.0,50,0.00,,,0.00,VWS V14.01,2013-11-29 16:27:00,
2013-11-29 11:33:00,36.3,19.0,18.58,SSE,152,0.0,0.0,49,0.00,,,0.00,VWS V14.01,2013-11-29 16:33:00,
2013-11-29 11:38:00,35.8,18.5,18.58,SE,138,3.4,7.8,49,0.00,,,0.00,VWS V14.01,2013-11-29 16:38:00,
2013-11-29 11:44:00,36.1,17.9,18.58,NE,36,0.0,5.6,47,0.00,,,0.00,VWS V14.01,2013-11-29 16:44:00,
2013-11-29 11:49:00,35.2,16.0,18.58,NNE,28,0.0,0.0,45,0.00,,,0.00,VWS V14.01,2013-11-29 16:49:00,
2013-11-29 11:56:00,35.1,15.4,18.58,NNE,28,0.0,0.0,44,0.00,,,0.00,VWS V14.01,2013-11-29 16:56:00,
2013-11-29 12:02:00,36.0,14.6,18.58,NNE,28,0.0,0.0,41,0.00,,,0.00,VWS V14.01,2013-11-29 17:02:00,
2013-11-29 12:07:00,36.5,15.1,18.58,NNE,28,0.0,0.0,41,0.00,,,0.00,VWS V14.01,2013-11-29 17:07:00,
2013-11-29 12:12:00,36.7,15.2,18.58,NNE,28,0.0,0.0,41,0.00,,,0.00,VWS V14.01,2013-11-29 17:12:00,
2013-11-29 12:18:00,38.1,17.1,18.58,NNW,339,0.0,0.0,42,0.00,,,0.00,VWS V14.01,2013-11-29 17:18:00,
2013-11-29 12:24:00,38.7,18.1,18.58,NNW,341,0.0,5.6,43,0.00,,,0.00,VWS V14.01,2013-11-29 17:24:00,
2013-11-29 12:30:00,39.0,18.4,18.58,NNW,335,0.0,0.0,43,0.00,,,0.00,VWS V14.01,2013-11-29 17:30:00,
2013-11-29 12:36:00,38.8,17.7,18.58,North,350,0.0,0.0,42,0.00,,,0.00,VWS V14.01,2013-11-29 17:36:00,
2013-11-29 12:42:00,39.4,18.2,18.58,NW,312,0.0,0.0,42,0.00,,,0.00,VWS V14.01,2013-11-29 17:42:00,
2013-11-29 12:48:00,39.2,17.5,18.58,North,357,0.0,0.0,41,0.00,,,0.00,VWS V14.01,2013-11-29 17:48:00,
2013-11-29 12:53:00,39.4,17.7,18.58,NNE,32,0.0,6.7,41,0.00,,,0.00,VWS V14.01,2013-11-29 17:53:00,
2013-11-29 12:58:00,39.9,18.1,18.58,WNW,292,0.0,0.0,41,0.00,,,0.00,VWS V14.01,2013-11-29 17:58:00,
2013-11-29 13:04:00,39.9,18.1,18.58,North,353,0.0,0.0,41,0.00,,,0.00,VWS V14.01,2013-11-29 18:04:00,
2013-11-29 13:09:00,39.9,17.6,18.58,North,8,4.7,7.8,40,0.00,,,0.00,VWS V14.01,2013-11-29 18:09:00,
2013-11-29 13:15:00,38.7,16.4,18.58,North,353,0.0,6.7,40,0.00,,,0.00,VWS V14.01,2013-11-29 18:15:00,
2013-11-29 13:21:00,38.5,16.8,18.58,NNW,337,0.0,0.0,41,0.00,,,0.00,VWS V14.01,2013-11-29 18:21:00,
2013-11-29 13:26:00,37.9,16.4,18.58,NNW,337,0.0,0.0,41,0.00,,,0.00,VWS V14.01,2013-11-29 18:26:00,
2013-11-29 13:32:00,37.6,16.0,18.58,West,276,0.0,0.0,41,0.00,,,0.00,VWS V14.01,2013-11-29 18:32:00,
2013-11-29 13:37:00,37.2,16.3,18.58,WNW,288,0.0,0.0,42,0.00,,,0.00,VWS V14.01,2013-11-29 18:37:00,
2013-11-29 13:43:00,37.0,16.6,18.58,WNW,288,0.0,0.0,43,0.00,,,0.00,VWS V14.01,2013-11-29 18:43:00,
2013-11-29 13:48:00,37.0,16.6,18.58,WNW,288,0.0,0.0,43,0.00,,,0.00,VWS V14.01,2013-11-29 18:48:00,
2013-11-29 13:53:00,36.7,16.3,18.58,West,271,0.0,0.0,43,0.00,,,0.00,VWS V14.01,2013-11-29 18:53:00,
2013-11-29 13:58:00,36.3,16.0,18.58,WSW,256,0.0,0.0,43,0.00,,,0.00,VWS V14.01,2013-11-29 18:58:00,
2013-11-29 14:03:00,36.3,15.4,18.58,WNW,301,0.0,0.0,42,0.00,,,0.00,VWS V14.01,2013-11-29 19:03:00,
2013-11-29 14:08:00,36.3,15.4,18.58,NW,320,0.0,0.0,42,0.00,,,0.00,VWS V14.01,2013-11-29 19:08:00,
2013-11-29 14:13:00,36.5,16.1,18.58,NW,313,0.0,0.0,43,0.00,,,0.00,VWS V14.01,2013-11-29 19:13:00,
2013-11-29 14:19:00,36.3,16.0,18.58,NW,311,0.0,0.0,43,0.00,,,0.00,VWS V14.01,2013-11-29 19:19:00,
2013-11-29 14:25:00,36.1,15.8,18.58,West,260,0.0,0.0,43,0.00,,,0.00,VWS V14.01,2013-11-29 19:25:00,
2013-11-29 14:31:00,35.6,14.8,18.58,NW,321,4.7,7.8,42,0.00,,,0.00,VWS V14.01,2013-11-29 19:31:00,
2013-11-29 14:37:00,35.4,15.2,18.58,NW,314,0.0,0.0,43,0.00,,,0.00,VWS V14.01,2013-11-29 19:37:00,
2013-11-29 14:43:00,35.4,15.2,18.58,West,261,0.0,0.0,43,0.00,,,0.00,VWS V14.01,2013-11-29 19:43:00,
2013-11-29 14:49:00,35.1,14.8,18.58,North,357,0.0,0.0,43,0.00,,,0.00,VWS V14.01,2013-11-29 19:49:00,
2013-11-29 14:54:00,34.7,14.5,18.58,NNE,27,0.0,0.0,43,0.00,,,0.00,VWS V14.01,2013-11-29 19:54:00,
2013-11-29 15:01:00,34.5,13.8,18.58,NNW,328,0.0,0.0,42,0.00,,,0.00,VWS V14.01,2013-11-29 20:01:00,
2013-11-29 15:07:00,34.3,13.6,18.58,WSW,257,0.0,0.0,42,0.00,,,0.00,VWS V14.01,2013-11-29 20:07:00,
2013-11-29 15:13:00,34.2,14.0,18.58,SSE,160,0.0,0.0,43,0.00,,,0.00,VWS V14.01,2013-11-29 20:13:00,
2013-11-29 15:18:00,33.8,13.7,18.58,SE,142,0.0,0.0,43,0.00,,,0.00,VWS V14.01,2013-11-29 20:18:00,
2013-11-29 15:24:00,34.0,13.9,18.58,SE,142,4.0,10.1,43,0.00,,,0.00,VWS V14.01,2013-11-29 20:24:00,
2013-11-29 15:29:00,34.2,14.5,18.58,SE,146,3.4,7.8,44,0.00,,,0.00,VWS V14.01,2013-11-29 20:29:00,
2013-11-29 15:36:00,34.2,14.5,18.58,SE,136,0.0,5.6,44,0.00,,,0.00,VWS V14.01,2013-11-29 20:36:00,
2013-11-29 15:42:00,34.2,14.5,18.58,SW,232,0.0,0.0,44,0.00,,,0.00,VWS V14.01,2013-11-29 20:42:00,
2013-11-29 15:48:00,34.0,14.9,18.58,SSE,156,4.0,6.7,45,0.00,,,0.00,VWS V14.01,2013-11-29 20:48:00,
2013-11-29 15:53:00,34.0,14.9,18.58,South,190,4.0,7.8,45,0.00,,,0.00,VWS V14.01,2013-11-29 20:53:00,
2013-11-29 15:59:00,33.8,14.7,18.58,SSE,162,0.0,7.8,45,0.00,,,0.00,VWS V14.01,2013-11-29 20:59:00,
2013-11-29 16:04:00,33.6,14.6,18.58,SSW,194,3.4,13.4,45,0.00,,,0.00,VWS V14.01,2013-11-29 21:04:00,
2013-11-29 16:10:00,33.3,14.2,18.58,SE,135,3.4,5.6,45,0.00,,,0.00,VWS V14.01,2013-11-29 21:10:00,
2013-11-29 16:16:00,33.1,14.1,18.58,SE,126,4.0,6.7,45,0.00,,,0.00,VWS V14.01,2013-11-29 21:16:00,
2013-11-29 16:21:00,32.7,14.2,18.58,SE,142,4.0,8.9,46,0.00,,,0.00,VWS V14.01,2013-11-29 21:21:00,
2013-11-29 16:26:00,32.5,14.1,18.58,ESE,117,4.0,7.8,46,0.00,,,0.00,VWS V14.01,2013-11-29 21:26:00,
2013-11-29 16:31:00,32.4,13.9,18.58,ESE,113,4.0,7.8,46,0.00,,,0.00,VWS V14.01,2013-11-29 21:31:00,
2013-11-29 16:37:00,32.0,14.1,18.58,SE,142,4.0,7.8,47,0.00,,,0.00,VWS V14.01,2013-11-29 21:37:00,
2013-11-29 16:42:00,31.6,13.7,18.58,SE,144,0.0,6.7,47,0.00,,,0.00,VWS V14.01,2013-11-29 21:42:00,
2013-11-29 16:48:00,31.3,13.4,18.58,SE,137,3.4,6.7,47,0.00,,,0.00,VWS V14.01,2013-11-29 21:48:00,
2013-11-29 16:53:00,31.1,13.2,18.58,ESE,113,4.0,6.7,47,0.00,,,0.00,VWS V14.01,2013-11-29 21:53:00,
2013-11-29 16:59:00,30.6,12.7,18.58,SE,125,0.0,0.0,47,0.00,,,0.00,VWS V14.01,2013-11-29 21:59:00,
2013-11-29 17:06:00,30.2,12.9,18.58,ESE,117,0.0,0.0,48,0.00,,,0.00,VWS V14.01,2013-11-29 22:06:00,
2013-11-29 17:11:00,30.0,13.2,18.58,ESE,115,0.0,0.0,49,0.00,,,0.00,VWS V14.01,2013-11-29 22:11:00,
2013-11-29 17:16:00,29.7,12.9,18.58,ESE,111,0.0,5.6,49,0.00,,,0.00,VWS V14.01,2013-11-29 22:16:00,
2013-11-29 17:22:00,29.1,12.8,18.58,ESE,111,0.0,0.0,50,0.00,,,0.00,VWS V14.01,2013-11-29 22:22:00,
2013-11-29 17:28:00,28.6,12.3,18.58,ESE,111,0.0,0.0,50,0.00,,,0.00,VWS V14.01,2013-11-29 22:28:00,
2013-11-29 17:33:00,28.6,12.3,18.58,ESE,111,0.0,0.0,50,0.00,,,0.00,VWS V14.01,2013-11-29 22:33:00,
2013-11-29 17:38:00,28.2,12.4,18.58,ESE,111,0.0,0.0,51,0.00,,,0.00,VWS V14.01,2013-11-29 22:38:00,
2013-11-29 17:44:00,28.4,12.6,18.58,ESE,111,0.0,0.0,51,0.00,,,0.00,VWS V14.01,2013-11-29 22:44:00,
2013-11-29 17:49:00,28.0,12.3,18.58,ESE,111,0.0,0.0,51,0.00,,,0.00,VWS V14.01,2013-11-29 22:49:00,
2013-11-29 17:56:00,27.3,11.6,18.58,ESE,111,0.0,0.0,51,0.00,,,0.00,VWS V14.01,2013-11-29 22:56:00,
2013-11-29 18:02:00,27.3,12.0,18.58,ESE,111,0.0,0.0,52,0.00,,,0.00,VWS V14.01,2013-11-29 23:02:00,
2013-11-29 18:08:00,27.1,11.9,18.58,ESE,111,0.0,0.0,52,0.00,,,0.00,VWS V14.01,2013-11-29 23:08:00,
2013-11-29 18:13:00,27.0,12.1,18.58,ESE,111,0.0,0.0,53,0.00,,,0.00,VWS V14.01,2013-11-29 23:13:00,
2013-11-29 18:19:00,27.1,12.3,18.58,ESE,111,0.0,0.0,53,0.00,,,0.00,VWS V14.01,2013-11-29 23:19:00,
2013-11-29 18:24:00,27.0,12.1,18.58,ESE,111,0.0,0.0,53,0.00,,,0.00,VWS V14.01,2013-11-29 23:24:00,
2013-11-29 18:31:00,26.6,12.2,18.58,ESE,111,0.0,0.0,54,0.00,,,0.00,VWS V14.01,2013-11-29 23:31:00,
2013-11-29 18:36:00,26.4,12.0,18.58,ESE,111,0.0,0.0,54,0.00,,,0.00,VWS V14.01,2013-11-29 23:36:00,
2013-11-29 18:41:00,26.4,12.0,18.58,ESE,111,0.0,0.0,54,0.00,,,0.00,VWS V14.01,2013-11-29 23:41:00,
2013-11-29 18:47:00,26.2,12.3,18.58,ESE,111,0.0,0.0,55,0.00,,,0.00,VWS V14.01,2013-11-29 23:47:00,
2013-11-29 18:52:00,26.1,12.1,18.58,ESE,111,0.0,0.0,55,0.00,,,0.00,VWS V14.01,2013-11-29 23:52:00,
2013-11-29 18:58:00,26.1,12.1,18.58,ESE,111,0.0,0.0,55,0.00,,,0.00,VWS V14.01,2013-11-29 23:58:00,
2013-11-29 19:04:00,26.1,12.5,18.58,ESE,111,0.0,0.0,56,0.00,,,0.00,VWS V14.01,2013-11-30 00:04:00,
2013-11-29 19:09:00,26.1,12.5,18.58,ESE,111,0.0,0.0,56,0.00,,,0.00,VWS V14.01,2013-11-30 00:09:00,
2013-11-29 19:16:00,26.2,13.1,18.58,ESE,111,0.0,0.0,57,0.00,,,0.00,VWS V14.01,2013-11-30 00:16:00,
2013-11-29 19:21:00,26.1,12.9,18.58,ESE,111,0.0,0.0,57,0.00,,,0.00,VWS V14.01,2013-11-30 00:21:00,
2013-11-29 19:26:00,26.1,12.9,18.58,ESE,111,0.0,0.0,57,0.00,,,0.00,VWS V14.01,2013-11-30 00:26:00,
2013-11-29 19:32:00,26.1,12.9,18.58,ESE,111,3.4,5.6,57,0.00,,,0.00,VWS V14.01,2013-11-30 00:32:00,
2013-11-29 19:37:00,26.1,13.3,18.58,ESE,111,4.0,6.7,58,0.00,,,0.00,VWS V14.01,2013-11-30 00:37:00,
2013-11-29 19:42:00,26.1,13.3,18.58,ESE,117,3.4,6.7,58,0.00,,,0.00,VWS V14.01,2013-11-30 00:42:00,
2013-11-29 19:47:00,26.2,13.5,18.58,ESE,113,4.7,8.9,58,0.00,,,0.00,VWS V14.01,2013-11-30 00:47:00,
2013-11-29 19:52:00,26.4,14.1,18.58,ESE,111,6.0,10.1,59,0.00,,,0.00,VWS V14.01,2013-11-30 00:52:00,
2013-11-29 19:58:00,26.6,14.2,18.58,SSE,150,4.0,8.9,59,0.00,,,0.00,VWS V14.01,2013-11-30 00:58:00,
2013-11-29 20:04:00,26.6,14.2,18.58,SE,129,4.0,10.1,59,0.00,,,0.00,VWS V14.01,2013-11-30 01:04:00,
2013-11-29 20:09:00,26.8,14.0,18.58,ESE,120,4.0,8.9,58,0.00,,,0.00,VWS V14.01,2013-11-30 01:09:00,
2013-11-29 20:14:00,26.8,14.0,18.58,ESE,112,4.7,10.1,58,0.00,,,0.00,VWS V14.01,2013-11-30 01:14:00,
2013-11-29 20:19:00,27.0,14.2,18.58,SE,128,4.0,10.1,58,0.00,,,0.00,VWS V14.01,2013-11-30 01:19:00,
2013-11-29 20:24:00,27.0,14.2,18.58,SE,133,5.4,8.9,58,0.00,,,0.00,VWS V14.01,2013-11-30 01:24:00,
2013-11-29 20:29:00,27.3,14.5,18.58,SE,131,5.4,15.7,58,0.00,,,0.00,VWS V14.01,2013-11-30 01:29:00,
2013-11-29 20:34:00,27.3,14.5,18.58,SE,136,4.7,12.3,58,0.00,,,0.00,VWS V14.01,2013-11-30 01:34:00,
2013-11-29 20:41:00,27.3,14.5,18.58,SE,140,4.0,10.1,58,0.00,,,0.00,VWS V14.01,2013-11-30 01:41:00,
2013-11-29 20:47:00,27.7,14.9,18.58,ESE,116,5.4,8.9,58,0.00,,,0.00,VWS V14.01,2013-11-30 01:47:00,
2013-11-29 20:53:00,27.7,14.9,18.58,SE,127,4.7,7.8,58,0.00,,,0.00,VWS V14.01,2013-11-30 01:53:00,
2013-11-29 20:58:00,27.9,14.6,18.58,SSE,148,4.7,8.9,57,0.00,,,0.00,VWS V14.01,2013-11-30 01:58:00,
2013-11-29 21:03:00,27.7,14.4,18.58,ESE,117,5.4,8.9,57,0.00,,,0.00,VWS V14.01,2013-11-30 02:03:00,
2013-11-29 21:08:00,27.9,14.6,18.58,SE,133,4.0,8.9,57,0.00,,,0.00,VWS V14.01,2013-11-30 02:08:00,
2013-11-29 21:13:00,27.9,14.6,18.58,SSE,158,4.7,10.1,57,0.00,,,0.00,VWS V14.01,2013-11-30 02:13:00,
2013-11-29 21:18:00,27.9,14.6,18.58,ESE,109,4.7,8.9,57,0.00,,,0.00,VWS V14.01,2013-11-30 02:18:00,
2013-11-29 21:23:00,27.9,14.6,18.58,SE,126,5.4,8.9,57,0.00,,,0.00,VWS V14.01,2013-11-30 02:23:00,
2013-11-29 21:29:00,27.9,14.6,18.58,ESE,123,9.4,15.7,57,0.00,,,0.00,VWS V14.01,2013-11-30 02:29:00,
2013-11-29 21:36:00,28.0,14.8,18.58,SE,143,5.4,13.4,57,0.00,,,0.00,VWS V14.01,2013-11-30 02:36:00,
2013-11-29 21:42:00,28.2,15.0,18.58,ESE,120,4.7,10.1,57,0.00,,,0.00,VWS V14.01,2013-11-30 02:42:00,
2013-11-29 21:47:00,28.2,15.0,18.58,ESE,113,5.4,13.4,57,0.00,,,0.00,VWS V14.01,2013-11-30 02:47:00,
2013-11-29 21:53:00,28.2,15.0,18.58,SSE,166,4.0,12.3,57,0.00,,,0.00,VWS V14.01,2013-11-30 02:53:00,
2013-11-29 21:58:00,28.2,15.0,18.58,SE,143,4.7,10.1,57,0.00,,,0.00,VWS V14.01,2013-11-30 02:58:00,
2013-11-29 22:04:00,28.2,15.0,18.58,SSE,147,8.1,13.4,57,0.00,,,0.00,VWS V14.01,2013-11-30 03:04:00,
2013-11-29 22:09:00,28.2,15.0,18.58,SE,130,4.7,8.9,57,0.00,,,0.00,VWS V14.01,2013-11-30 03:09:00,
2013-11-29 22:14:00,28.2,15.0,18.58,East,93,8.1,13.4,57,0.00,,,0.00,VWS V14.01,2013-11-30 03:14:00,
2013-11-29 22:20:00,28.2,15.0,18.58,SE,142,6.0,10.1,57,0.00,,,0.00,VWS V14.01,2013-11-30 03:20:00,
2013-11-29 22:26:00,28.2,14.6,18.58,SE,131,7.4,13.4,56,0.00,,,0.00,VWS V14.01,2013-11-30 03:26:00,
2013-11-29 22:32:00,28.0,14.8,18.58,ESE,123,4.7,10.1,57,0.00,,,0.00,VWS V14.01,2013-11-30 03:32:00,
2013-11-29 22:37:00,28.0,14.4,18.58,SSE,161,6.7,13.4,56,0.00,,,0.00,VWS V14.01,2013-11-30 03:37:00,
2013-11-29 22:42:00,28.0,14.4,18.58,SSE,153,4.7,10.1,56,0.00,,,0.00,VWS V14.01,2013-11-30 03:42:00,
2013-11-29 22:48:00,28.0,14.4,18.58,SSE,150,6.0,13.4,56,0.00,,,0.00,VWS V14.01,2013-11-30 03:48:00,
2013-11-29 22:53:00,28.0,14.8,18.58,SE,136,4.7,10.1,57,0.00,,,0.00,VWS V14.01,2013-11-30 03:53:00,
2013-11-29 22:59:00,28.2,15.0,18.58,SE,135,8.7,14.5,57,0.00,,,0.00,VWS V14.01,2013-11-30 03:59:00,
2013-11-29 23:04:00,28.2,15.0,18.58,ESE,120,5.4,10.1,57,0.00,,,0.00,VWS V14.01,2013-11-30 04:04:00,
2013-11-29 23:10:00,28.4,15.1,18.58,SSE,164,8.1,13.4,57,0.00,,,0.00,VWS V14.01,2013-11-30 04:10:00,
2013-11-29 23:16:00,28.6,15.3,18.58,SE,125,5.4,15.7,57,0.00,,,0.00,VWS V14.01,2013-11-30 04:16:00,
2013-11-29 23:21:00,28.6,15.3,18.58,SE,141,4.7,8.9,57,0.00,,,0.00,VWS V14.01,2013-11-30 04:21:00,
2013-11-29 23:27:00,28.8,15.5,18.58,SE,125,5.4,14.5,57,0.00,,,0.00,VWS V14.01,2013-11-30 04:27:00,
2013-11-29 23:32:00,28.8,15.5,18.58,SE,129,5.4,13.4,57,0.00,,,0.00,VWS V14.01,2013-11-30 04:32:00,
2013-11-29 23:37:00,28.8,15.1,18.58,SSE,155,6.0,15.7,56,0.00,,,0.00,VWS V14.01,2013-11-30 04:37:00,
2013-11-29 23:42:00,28.6,14.9,18.58,SSE,150,6.0,10.1,56,0.00,,,0.00,VWS V14.01,2013-11-30 04:42:00,
2013-11-29 23:47:00,28.6,14.9,18.58,East,84,4.0,7.8,56,0.00,,,0.00,VWS V14.01,2013-11-30 04:47:00,
2013-11-29 23:52:00,28.6,14.9,18.58,SE,140,8.7,14.5,56,0.00,,,0.00,VWS V14.01,2013-11-30 04:52:00,
2013-11-29 23:58:00,28.6,14.9,18.58,SSE,149,5.4,13.4,56,0.00,,,0.00,VWS V14.01,2013-11-30 04:58:00,